Location: Asbacherhof
(48.8543°N, 10.7903°E)
Time: 22:34:56
(UTC+00:00)

Cosmos 371 Rocket - Pass Details

Date: 26 May 2022
Orbit: 684 x 697 km, 74.0° (Epoch: 26 June)

Event Time Altitude Azimuth Distance (km) Brightness Sun altitude
Exits shadow 01:06:05 19° 246° (WSW) 1,633 4.8 -15.7°
Maximum altitude 01:09:00 36° 302° (WNW) 1,092 4.3 -15.5°
Drops below altitude 10° 01:13:30 10° 10° (N) 2,158 7.0 -15.1°
Sets 01:15:59 0° 19° (NNE) 3,077 8.4 -14.9°
